C/2010 R1 ( LINEAR )

Japanese version
Home page
Updated on January 19, 2014

---------------------------------------------------------------------

* Profile

Discovery Date September 4, 2010
Magnitude 20.5 mag
Discoverer Lincoln Laboratory Near-Earth Asteroid Research project

* Pictures

* Orbital Elements

Epoch 2012 June 2.0 TT = JDT 2456080.5
T 2012 May 18.89668 TT                                  MPC
q   5.6214207            (2000.0)            P               Q
z  -0.0006520      Peri.  114.49623     -0.63355775     -0.76579308
 +/-0.0000006      Node   343.64941     -0.77181002     +0.63550493
e   1.0036652      Incl.  156.93339     +0.05398033     +0.09846035
From 1334 observations 2010 Sept. 4-2014 Jan. 7, mean residual 0".5.

* Magnitudes Graph

        m1 = 6.0 + 5 log d + 10.0 log r

---------------------------------------------------------------------

The orbital elements are published on M.P.E.C. 2014-A73.
The magnitudes graphs are made with Comet for Windows.

---------------------------------------------------------------------

Copyright(C) Seiichi Yoshida (comet@aerith.net). All rights reserved.